Miscellaneous Local Product
Issued by NWS North Platte, NE

Home | Current Version | Previous Version | Text Only | Print | Product List | Glossary On
Versions: 1 2 3 4 5 6 7 8 9 10 11 12 13 14 15 16 17 18 19 20 21 22 23 24 25 26 27 28 29 30 31 32 33 34 35 36 37 38 39 40 41 42 43 44 45 46 47 48 49 50
000
AXUS43 KLBF 061710
MISLBF


WESTERN AND NORTH CENTRAL NEBRASKA HOURLY WEATHER ROUNDUP
NATIONAL WEATHER SERVICE NORTH PLATTE NE
1200 PM CDT FRI MAY 06 2016

NOTE: "FAIR" INDICATES FEW OR NO CLOUDS BELOW 12,000 FEET WITH NO
SIGNIFICANT WEATHER AND/OR OBSTRUCTIONS TO VISIBILITY.

NOTE: STATIONS NOT REPORTING VARIABLES SUCH AS SKY/WEATHER OR
PRESSURE ARE PROVIDED BY RAWS AND APRS NETWORKS AND ARE NOT UNDER
NATIONAL WEATHER SERVICE QUALITY CONTROL.

...OBSERVATIONS IN AND NEAR THE EASTERN PANHANDLE OF NEBRASKA...

CITY           SKY/WX    TMP DP  RH WIND       PRES   REMARKS
PINE RIDGE     MOSUNNY   78  51  38 W6        29.93S
CHADRON        CLOUDY    76  50  40 S6        29.92S
ALLIANCE       CLOUDY    70  50  49 SE10      29.95F
SIDNEY         MOSUNNY   70  48  45 SE9       29.97S
CRESCENT LAKE    N/A     70  51  51 SE7         N/A
BIG SPRINGS      N/A     66  51  58 S7          N/A
$$

...OBSERVATIONS IN NORTHERN NEBRASKA AND FAR SOUTHERN SOUTH DAKOTA...

CITY           SKY/WX    TMP DP  RH WIND       PRES   REMARKS
WINNER         FAIR      81  54  39 SW14G23   29.88R
VALENTINE      MOSUNNY   79  47  32 SW16      29.92S
THEDFORD       MOSUNNY   78  48  34 S16       29.97S
AINSWORTH      SUNNY     79  48  33 S22       29.93F
O`NEILL        SUNNY     82  47  30 SW18      29.93S
ORD            SUNNY     76  52  43 SW21G28   29.96S
BROKEN BOW     CLOUDY    76  50  40 S21       29.98F
BUTTE            N/A     80  53  38 SW13G21     N/A
CHAMBERS         N/A     80  53  38 S10G20      N/A
EWING            N/A     81  52  36 SW16G24     N/A
$$

...OBSERVATIONS IN SOUTHWEST NEBRASKA AND FAR NORTHEAST COLORADO...

CITY           SKY/WX    TMP DP  RH WIND       PRES   REMARKS
HOLYOKE        FAIR      73  48  40 SE9       29.96S
IMPERIAL       SUNNY     74  49  41 S14       29.95F
OGALLALA       MOSUNNY   70  48  45 S8        29.96F
NORTH PLATTE   SUNNY     77  51  40 S17       29.95F
MCCOOK         MOSUNNY   72  52  49 S15       29.96F
LEXINGTON      SUNNY     75  52  43 S16G26    29.97F
PAXTON           N/A     70  53  54 S7          N/A
STAPLETON        N/A     78  54  42 CALM        N/A
GOTHENBURG       N/A     71  47  41 S13         N/A
CALLAWAY         N/A     71  51  49 SW25        N/A
$$

...OBSERVATIONS IN CENTRAL LINCOLN COUNTY AREA...

CITY           SKY/WX    TMP DP  RH WIND       PRES   REMARKS
N.P. AIRPORT   SUNNY     77  51  40 S17       29.95F
N.P. DOWNTOWN    N/A     78  52  40 S6          N/A
N.P. SOUTHEAST   N/A     77  51  40 S9G16       N/A
N.P. HILLCREST   N/A     77  53  42 S8          N/A
$$

...SOME OBSERVATIONS FROM AROUND THE REGION...

CITY           SKY/WX    TMP DP  RH WIND       PRES   REMARKS
DENVER         PTSUNNY   73  37  27 SW3       29.98F
LARAMIE        SUNNY     67  34  29 CALM      30.06F
CHEYENNE       CLOUDY    73  38  27 SE12      30.01S
SCOTTSBLUFF    MOSUNNY   70  50  49 SE10      29.95S
RAPID CITY     CLOUDY    75  46  35 N29G36    29.93R
BISMARCK       MOSUNNY   73  50  44 N16       29.94R
PIERRE         SUNNY     78  54  43 S8        29.84R
SIOUX FALLS    MOSUNNY   78  54  43 SW14G21   29.88F
OMAHA          MOSUNNY   81  43  26 S14G22    29.99F
GRAND ISLAND   SUNNY     79  47  32 S22G30    29.99F
KANSAS CITY    MOSUNNY   74  50  42 SW10      30.08S
WICHITA        MOSUNNY   78  49  35 S16       30.09S
OKLAHOMA CITY  PTSUNNY   75  52  44 S13       30.11F
DALLAS         MOSUNNY   80  48  32 SE10      30.11S
AMARILLO       SUNNY     78  44  29 S23G30    30.09F
DODGE CITY     SUNNY     75  49  39 S28G35    30.04F
HAYS           SUNNY     79  50  36 S26G35    30.01F
GOODLAND       CLOUDY    72  49  44 S15       29.97F
$$




USA.gov is the U.S. government's official web portal to all federal, state and local government web resources and services.